Date,TemperatureHighF,TemperatureAvgF,TemperatureLowF,DewpointHighF,DewpointAvgF,DewpointLowF,HumidityHigh,HumidityAvg,HumidityLow,PressureMaxIn,PressureMinIn,WindSpeedMaxMPH,WindSpeedAvgMPH,GustSpeedMaxMPH,PrecipitationSumIn
2013-10-1,55.2,41.7,30.1,39.2,34.0,28.0,94,76,47,30.05,29.87,9,1,15,0.01
2013-10-2,52.4,40.5,28.8,39.1,32.1,27.0,94,74,45,30.33,30.05,9,1,14,0.00
2013-10-3,52.6,39.9,28.3,36.0,31.0,26.2,93,73,46,30.37,30.29,11,2,15,0.00
2013-10-4,58.2,42.7,30.9,34.6,30.9,28.0,90,67,35,30.34,30.19,8,2,13,0.00
2013-10-5,58.8,44.6,32.3,40.5,35.2,29.0,89,71,46,30.18,30.01,10,2,12,0.00
2013-10-6,58.6,47.1,39.3,44.3,40.4,36.8,92,79,57,30.27,30.07,4,0,5,0.00
2013-10-7,56.5,48.3,40.2,47.8,43.5,38.0,93,84,67,30.33,30.27,5,0,5,0.00
2013-10-8,62.0,48.0,36.9,50.0,43.1,35.0,96,85,58,30.28,30.15,5,0,8,0.01
2013-10-9,57.6,49.0,39.3,49.5,44.9,37.7,96,86,73,30.17,29.86,8,2,11,0.00
2013-10-10,64.7,54.9,46.7,51.8,48.1,45.0,95,79,58,29.86,29.59,13,3,18,0.64
2013-10-11,57.7,48.2,43.6,55.3,46.5,41.4,96,94,89,30.06,29.74,13,2,20,0.19
2013-10-12,55.9,47.9,41.3,53.2,46.0,39.7,95,94,89,30.07,29.94,7,1,10,0.03
2013-10-13,59.1,48.6,38.7,47.2,43.3,36.8,96,83,57,30.13,29.99,10,2,17,0.01
2013-10-14,55.4,44.2,34.3,49.7,41.5,33.0,96,90,77,30.15,30.02,5,0,6,0.00
2013-10-15,58.1,48.8,40.3,49.8,44.8,38.7,96,87,71,30.02,29.69,14,2,18,0.02
2013-10-16,53.4,47.8,40.0,47.4,43.4,37.9,94,85,72,29.95,29.68,10,3,16,0.02
2013-10-17,59.3,47.5,35.2,49.3,42.8,33.8,96,85,66,29.95,29.81,22,4,26,0.06
2013-10-18,55.2,51.3,41.3,48.6,43.3,38.5,90,75,63,30.11,29.81,17,5,25,0.03
2013-10-19,60.9,45.0,32.2,46.8,39.5,30.6,96,83,57,30.11,29.97,8,1,13,0.00
2013-10-20,63.8,51.9,39.5,54.5,47.8,37.9,96,87,67,30.02,29.95,6,1,10,0.25
2013-10-21,69.3,59.0,51.3,56.2,53.5,49.1,95,83,61,30.01,29.96,10,2,17,0.01
2013-10-22,68.9,54.6,45.2,59.5,50.9,43.8,96,88,71,30.00,29.88,8,1,10,0.00
2013-10-23,66.9,57.0,48.3,57.5,52.9,46.7,97,87,69,29.92,29.80,5,0,7,0.01
2013-10-24,68.6,58.6,48.8,55.1,51.8,46.4,93,79,55,30.09,29.91,14,2,18,0.02
2013-10-25,57.4,49.7,41.6,53.4,47.6,40.2,96,93,86,30.09,30.00,4,0,6,0.01
2013-10-26,70.8,57.8,47.2,57.9,52.4,46.1,97,84,62,30.01,29.94,10,1,12,0.00
2013-10-27,68.3,59.0,49.7,54.9,49.6,44.9,96,73,52,29.93,29.71,19,4,28,0.00
2013-10-28,74.6,62.2,54.2,52.2,48.7,45.0,74,62,35,29.84,29.58,16,4,22,0.00
2013-10-29,62.5,55.6,50.1,48.2,45.0,43.1,80,68,58,30.02,29.75,19,5,25,0.00
2013-10-30,58.7,49.2,35.0,44.4,39.2,31.5,87,70,45,30.31,30.02,17,3,18,0.00
2013-10-31,52.6,38.4,29.9,40.6,33.5,28.0,94,84,58,30.34,30.15,5,0,8,0.00